Meteo Giornale » Osservazioni meteo Svizzera » Saint Gallen-Altenrhein

ore: 19:50 - Osservazioni Meteo Saint Gallen-Altenrhein
Lat. 47° 29' N Lon. 9° 33' E Alt. 398 metri s.l.m.

molto_nuvoloso Europe/Zurich

19 °C

Molto Nuvoloso

Temp. 24 Ore

13 °C

20 °C

Nord-Est

7.4 Km/h

Dew point 15 °C

Umidità 77 %

Visibilità  10 Km

Il sole sorge alle ore 06:25

Il sole tramonta alle ore 20:23

Data e Ora Cielo e Fenomeni T °C DP °C Um. % Pres. hPa Vis. km Vento km/h
Oggi h: 19:50 molto_nuvoloso Molto Nuvoloso 19 15 77 1025 10 NE 7.4
Oggi h: 19:20 molto_nuvoloso Molto Nuvoloso 19 15 77 1025 10 N 5.5
Oggi h: 18:50 molto_nuvoloso Molto Nuvoloso 19 15 77 1025 10 N 5.5
Oggi h: 18:20 molto_nuvoloso Molto Nuvoloso 20 15 72 1025 10 N 5.5
Oggi h: 17:50 molto_nuvoloso Molto Nuvoloso 19 15 77 1025 10 N 5.5
Oggi h: 17:20 coperto Coperto 19 15 77 1025 10 O/SO 7.4
Oggi h: 16:50 molto_nuvoloso Molto Nuvoloso 18 15 82 1025 10 O 13
Oggi h: 16:20 molto_nuvoloso Molto Nuvoloso 18 14 77 1025 10 O 11.1
Oggi h: 15:50 molto_nuvoloso Molto Nuvoloso 18 14 77 1025 10 O 11.1
Oggi h: 15:20 molto_nuvoloso Molto Nuvoloso 18 14 77 1025 10 O/NO 7.4
Oggi h: 14:50 molto_nuvoloso Molto Nuvoloso 18 14 77 1025 10 O/NO 7.4
Oggi h: 14:20 molto_nuvoloso Molto Nuvoloso 18 15 82 1025 10 NO 9.3
Oggi h: 13:50 coperto Coperto 18 14 77 1025 10 O/NO 9.3
Oggi h: 13:20 molto_nuvoloso Molto Nuvoloso 18 15 82 1025 10 O 9.3
Oggi h: 12:50 molto_nuvoloso Molto Nuvoloso 17 14 82 1025 10 O 11.1
Oggi h: 12:20 molto_nuvoloso Molto Nuvoloso 17 14 82 1025 10 O 9.3
Oggi h: 11:50 molto_nuvoloso Molto Nuvoloso 17 14 82 1025 10 O/NO 11.1
Oggi h: 11:20 molto_nuvoloso Molto Nuvoloso 17 15 88 1025 10 O 9.3
Oggi h: 10:50 molto_nuvoloso Molto Nuvoloso 16 14 87 1025 10 O 7.4
Oggi h: 10:20 molto_nuvoloso Molto Nuvoloso 16 15 93 1025 10 O 7.4
Oggi h: 09:50 molto_nuvoloso Molto Nuvoloso 16 15 93 1025 10 O 7.4
Oggi h: 09:20 molto_nuvoloso Molto Nuvoloso 15 15 100 1025 10 N 5.5
Oggi h: 08:50 molto_nuvoloso Molto Nuvoloso 15 14 93 1025 10 N 3.7
Oggi h: 08:20 molto_nuvoloso Molto Nuvoloso 15 14 93 1024 10 N 3.7
Oggi h: 07:50 molto_nuvoloso Molto Nuvoloso 14 14 100 1024 10 N 5.5
Oggi h: 07:20 molto_nuvoloso Molto Nuvoloso 14 14 100 1024 10 E 9.3
Oggi h: 06:50 molto_nuvoloso Molto Nuvoloso 15 15 100 1024 10 N 5.5
Oggi h: 06:20 molto_nuvoloso Molto Nuvoloso 14 14 100 1024 10 N 3.7
Oggi h: 05:50 molto_nuvoloso Molto Nuvoloso 14 14 100 1024 10 N 1.8
Oggi h: 05:20 molto_nuvoloso Molto Nuvoloso 13 13 100 1024 10 N 3.7
Oggi h: 04:50 molto_nuvoloso Molto Nuvoloso 13 13 100 1024 10 N 3.7
Oggi h: 04:20 poco_nuvoloso Poco Nuvoloso 13 13 100 1024 10 N 3.7
Oggi h: 03:50 sereno Sereno 13 13 100 1024 10 N 1.8
Oggi h: 03:20 sereno Sereno 13 13 100 1024 10 N 1.8
Oggi h: 02:50 sereno Sereno 13 13 100 1024 10 N 3.7
Oggi h: 02:20 sereno Sereno 14 14 100 1024 10 N 1.8
Oggi h: 01:50 sereno Sereno 15 14 93 1024 10 N 1.8
Oggi h: 01:20 sereno Sereno 15 14 93 1024 10 N 1.8
Oggi h: 00:50 sereno Sereno 15 14 93 1025 10 N 3.7
Oggi h: 00:20 sereno Sereno 15 14 93 1025 10 N 5.5
Ieri h: 23:50 sereno Sereno 15 14 93 1025 10 N 3.7
Ieri h: 23:20 sereno Sereno 15 14 93 1025 10 N 3.7
Ieri h: 22:50 sereno Sereno 16 14 87 1025 10 N 3.7
Ieri h: 22:20 nuvoloso Nuvoloso 16 14 87 1025 10 N 3.7
Ieri h: 21:50 molto_nuvoloso Molto Nuvoloso 18 14 77 1025 10 N 3.7
Ieri h: 21:20 molto_nuvoloso Molto Nuvoloso 18 14 77 1025 10 N 3.7
Ieri h: 20:50 nuvoloso Nuvoloso 18 13 72 1025 10 NE 13